Home   Weather   Yonkers   Past weeks

Flag for USA Past Weather in Yonkers, New York, USA — Yesterday and Last 2 Weeks

Now
62 °F

Fog.


Feels Like: 62 °F
Forecast: 56 / 79 °F
Wind: 10 mph from Southeast

Location: Teterboro Airport

Current Time: Apr 27, 2017 at 9:08:36 pm

Latest Report: Apr 27, 2017 at 7:51 pm


Visibility: 2 mi

Pressure: 29.87 "Hg

Humidity: 93%

Dew Point: 60 °F

Location of YonkersLocation

Past Weather in Yonkers — Graph

°F

Yonkers Temperature Yesterday

Maximum temperature yesterday: 62 °F (at 3:51 pm)
Minimum temperature yesterday: 54 °F (at 3:16 am)
Average temperature yesterday: 58 °F

High & Low Weather Summary for the Past Weeks

 TemperatureHumidityPressure
High88 °F (Apr 16, 1:51 pm)100% (Apr 26, 3:16 am)30.53 "Hg (Apr 26, 3:16 am)
Low44 °F (Apr 24, 5:51 am)22% (Apr 17, 4:51 pm)29.74 "Hg (Apr 16, 6:51 pm)
Average57 °F68%30.08 "Hg
* Reported Apr 12 7:51 pm — Apr 27 7:51 pm, Yonkers, Weather by CustomWeather, © 2017

Note: Actual official high and low records may vary slightly from our data, if they occured in-between our weather recording intervals... More about our weather records

Advertising

Yonkers Weather History for the Previous 24 Hours

Scroll right to see more
 ConditionsComfort  
Time TempWeatherWind HumidityBarometerVisibility
7:51 pm
Thu, Apr 27
62 °FFog.10 mph93%29.87 "Hg2 mi
6:51 pm63 °FOvercast.9 mph84%29.87 "Hg10 mi
6:20 pm64 °FOvercast.12 mph81%29.88 "Hg10 mi
5:51 pm64 °FOvercast.9 mph81%29.87 "Hg10 mi
5:08 pm66 °FPartly sunny.12 mph75%29.86 "Hg10 mi
4:51 pm68 °FMore clouds than sun.14 mph70%29.85 "Hg10 mi
3:51 pm68 °FOvercast.13 mph70%29.85 "Hg10 mi
2:51 pm70 °FOvercast.9 mph66%29.87 "Hg10 mi
1:51 pm71 °FOvercast.12 mph63%29.88 "Hg10 mi
1:10 pm69 °FMore clouds than sun.6 mph68%29.88 "Hg10 mi
12:51 pm69 °FOvercast.6 mph68%29.88 "Hg10 mi
11:51 am68 °FMostly cloudy.6 mph70%29.90 "Hg10 mi
10:58 am66 °FMostly cloudy.3 mph78%29.89 "Hg10 mi
10:35 am63 °FFog.5 mph87%29.90 "Hg5 mi
10:17 am63 °FFog.7 mph87%29.91 "Hg4 mi
9:51 am63 °FDrizzle. Fog.6 mph87%29.91 "Hg2 mi
8:51 am62 °FDrizzle. Fog.6 mph90%29.91 "Hg2 mi
8:03 am61 °FDrizzle. Fog.No wind93%29.90 "Hg2 mi
7:58 am61 °FDrizzle. Fog.No wind93%29.90 "Hg1 mi
6:51 am60 °FDrizzle. Fog.No wind96%29.88 "Hg1 mi
5:54 am61 °FDrizzle. Fog.No wind97%29.86 "Hg1 mi
5:32 am61 °FDrizzle. Fog.No wind93%29.85 "Hg3 mi
5:15 am60 °FDrizzle. Fog.No wind96%29.85 "Hg3 mi
4:51 am60 °FDrizzle. Fog.No wind96%29.84 "Hg2 mi
3:51 am60 °FDrizzle. Fog.No wind96%29.84 "Hg2 mi
2:51 am61 °FDrizzle. Fog.No wind93%29.83 "Hg1 mi
1:51 am59 °FDrizzle. Fog.No wind100%29.84 "Hg1 mi
1:03 am59 °FDrizzle. Fog.No wind100%29.84 "Hg1 mi
12:51 am59 °FDrizzle. Fog.No wind100%29.84 "Hg2 mi
11:51 pm
Wed, Apr 26
60 °FDrizzle. Fog.No wind96%29.83 "Hg2 mi
11:34 pm60 °FDrizzle. Fog.No wind96%29.83 "Hg2 mi
10:51 pm61 °FOvercast.No wind90%29.83 "Hg8 mi
9:51 pm61 °FOvercast.No wind90%29.82 "Hg8 mi
Weather by CustomWeather, © 2017

See weather overviewHow to use our weather pages